Home > Weather > Poole > Past weeks

Flag for United Kingdom Past Weather in Poole, England, United Kingdom — Yesterday and Last 2 Weeks

Now
48 °F

Cool.


Feels Like: 46 °F
Forecast: 52 / 70 °F
Wind: 6 mph from North

Location: Boscombe Down

Current Time: May 29, 2016 at 5:01:38 AM

Latest Report: May 29, 2016 at 3:50 AM


Visibility: N/A

Pressure: 29.92 "Hg

Humidity: 94%

Dew Point: 46 °F

Location of PooleLocation

Past Weather in Poole — Graph

°F

Poole Temperature Yesterday

Maximum temperature yesterday: 68 °F (at 3:50 PM)
Minimum temperature yesterday: 52 °F (at 4:50 AM)
Average temperature yesterday: 60 °F

High & Low Weather Summary for the Past Weeks

 TemperatureHumidityPressure
High68 °F (May 27, 3:50 PM)100% (May 17, 4:50 AM)30.21 "Hg (May 17, 4:50 AM)
Low39 °F (May 15, 4:50 AM)44% (May 14, 4:50 PM)29.59 "Hg (May 18, 11:50 AM)
Average54 °F78%29.97 "Hg
* Reported May 14 3:50 AM — May 29 3:50 AM, Poole, Weather by CustomWeather, © 2016

Note: Actual official high and low records may vary slightly from our data, if they occured in-between our weather recording intervals... More about our weather records

Advertising

Poole Weather History for the Previous 24 Hours

Scroll right to see more
 ConditionsComfort  
Time TempWeatherWind HumidityBarometerVisibility
3:50 AM
Sun, May 29
48 °FCool.6 mph94%29.92 "HgN/A
2:50 AM52 °FCool.8 mph88%29.92 "HgN/A
1:50 AM54 °FCool.7 mph82%29.92 "HgN/A
12:50 AM55 °FCool.10 mph82%29.92 "HgN/A
11:50 PM
Sat, May 28
57 °FCool.12 mph77%29.92 "HgN/A
10:50 PM59 °FCool.9 mph72%29.92 "HgN/A
9:50 PM59 °FCool.9 mph77%29.92 "HgN/A
8:50 PM61 °FCool.7 mph77%29.92 "HgN/A
7:50 PM64 °FMild.8 mph64%29.92 "HgN/A
6:50 PM66 °FMild.12 mph60%29.89 "HgN/A
5:50 PM68 °FPassing clouds.10 mph53%29.89 "HgN/A
4:50 PM68 °FPassing clouds.9 mph56%29.92 "HgN/A
3:50 PM68 °FPassing clouds.10 mph60%29.92 "HgN/A
2:50 PM66 °FPartly sunny.10 mph64%29.95 "HgN/A
1:50 PM66 °FPassing clouds.10 mph64%29.95 "HgN/A
12:50 PM64 °FPartly sunny.12 mph68%29.95 "HgN/A
11:50 AM64 °FBroken clouds.12 mph64%29.98 "HgN/A
10:50 AM61 °FBroken clouds.9 mph77%29.98 "HgN/A
9:50 AM57 °FPartly sunny.7 mph82%29.98 "Hg5 mi
8:50 AM55 °FPartly sunny.8 mph88%29.98 "Hg4 mi
7:50 AM54 °FPartly sunny.6 mph94%29.98 "Hg2 mi
6:50 AM52 °FFog.6 mph100%29.98 "Hg1 mi
5:50 AM52 °FFog.2 mph100%29.98 "Hg1 mi
Weather by CustomWeather, © 2016

See weather overviewHow to use our weather pages